Regional Weather Roundup
Issued by NWS

Home | Current Version | Previous Version | Graphics & Text | Print | Product List | Glossary On
Versions: 1 2 3 4 5 6 7 8 9 10 11 12 13 14 15 16 17 18 19 20 21 22 23 24 25 26 27 28 29 30 31 32 33 34 35 36 37 38 39 40 41 42 43 44 45 46 47 48 49 50
000
ASUS45 KSLC 202210
RWRUT

UTAH REGIONAL WEATHER ROUNDUP
NATIONAL WEATHER SERVICE SALT LAKE CITY UT
400 PM MDT MON OCT 20 2014

UTZ001>011-023>025-202300-

NORTHERN UTAH

CITY           SKY/WX    TMP DP  RH WIND       PRES   REMARKS
BRIGHAM CITY   SUNNY     74  33  22 CALM      29.97F
HILL AFB       SUNNY     75  37  25 S5        29.99F
LOGAN          SUNNY     74  36  25 CALM      29.97F
OGDEN          SUNNY     76  36  23 VRB6      29.97F
PROVO AIRPORT  MOSUNNY   75  37  25 CALM      29.99F
SALT LAKE CITY MOSUNNY   79  35  20 S15       29.94F
VERNAL         SUNNY     69  38  32 S3        30.09F
WENDOVER       SUNNY     64  36  34 E5        29.95F
HEBER CITY     MOSUNNY   73  32  21 SW9       30.03S
WEST JORDAN    SUNNY     75  46  35 SE12      29.98F

$$

UTZ012>022-026-027-202300-

SOUTHERN/CENTRAL UTAH

CITY           SKY/WX    TMP DP  RH WIND       PRES   REMARKS
BLANDING       SUNNY     70  37  30 S7        30.19F
BRYCE CANYON   MOSUNNY   61  37  41 SE12G24   30.19F
CEDAR CITY     PTSUNNY   73  38  27 SW13G21   30.03F
DELTA          SUNNY     76  33  21 SW8       29.99F
HANKSVILLE       N/A     75  37  25 N3        30.05F
MILFORD        MOSUNNY   76  37  24 SW14      29.99F
MOAB/CYNLANDS  CLOUDY    75  39  27 NW8       30.02F
PRICE          MOSUNNY   69  36  29 VRB6      30.11F
ST GEORGE      PTCLDY    88  41  19 NE8       29.91F
KANAB            N/A     73  39  29 NE8       30.06F

$$

REGIONAL REPORTS     COLORADO/ARIZONA

CITY           SKY/WX    TMP DP  RH WIND       PRES   REMARKS
CRAIG, CO      MOSUNNY   68  37  32 W8        30.13S
GRAND JUNCTION SUNNY     71  41  33 NW7       30.07F
RIFLE          MOSUNNY   70  37  29 W5        30.10F
MONTROSE       MOSUNNY   72  34  24 VRB5      30.12S
CORTEZ         SUNNY     69  39  33 SE10      30.12F
PAGE, AZ       NOT AVBL
GRAND CANYON   MOSUNNY   64  36  35 VRB3      30.14F
KINGMAN        SUNNY     80  44  27 SW9       29.96F
FLAGSTAFF      MOSUNNY   60  40  47 SW14      30.17S

$$

REGIONAL REPORTS    NEVADA/IDAHO/WYOMING

CITY           SKY/WX    TMP DP  RH WIND       PRES   REMARKS
LAS VEGAS, NV  MOSUNNY   87  41  19 E9        29.82F
ELY            SUNNY     72  30  21 S13G22    30.02F
ELKO           MOSUNNY   76  27  16 S12G25    29.89F
POCATELLO, ID  MOSUNNY   77  35  21 S18G24    29.93F
BURLEY         SUNNY     78  32  18 S17G24    29.87F
EVANSTON, WY   CLOUDY    66  31  27 W18G24    30.11F
ROCK SPRINGS   SUNNY     68  28  22 NW12      30.11F
KEMMERER       PTSUNNY   64  27  24 SW15G24   30.13S

$$


USA.gov is the U.S. government's official web portal to all federal, state and local government web resources and services.